This is the latest recevied weather packets stored in our database for station/object HA2SKA-1. If no packets are shown the sender has not sent any weather packets the latest 10 day(s).
| Time | Temp. | Humidity | Pressure | Rain* | Wind** | Luminosity | Snow |
|---|---|---|---|---|---|---|---|
| 1778068847 | 25° C | 38% | 1012.1 hPa | - | - | - | - |
| 1778067947 | 25.56° C | 37% | 1012.2 hPa | - | - | - | - |
| 1778067047 | 25° C | 39% | 1012.2 hPa | - | - | - | - |
| 1778066147 | 25° C | 37% | 1012.4 hPa | - | - | - | - |
| 1778065246 | 25.56° C | 39% | 1012.4 hPa | - | - | - | - |
| 1778064346 | 24.44° C | 40% | 1012.4 hPa | - | - | - | - |
| 1778063446 | 25.56° C | 38% | 1012.6 hPa | - | - | - | - |
| 1778062546 | 25° C | 39% | 1012.8 hPa | - | - | - | - |
| 1778061646 | 25° C | 42% | 1012.8 hPa | - | - | - | - |
| 1778060746 | 24.44° C | 43% | 1013.2 hPa | - | - | - | - |
| 1778059846 | 24.44° C | 43% | 1013.2 hPa | - | - | - | - |
| 1778058946 | 23.89° C | 45% | 1013.2 hPa | - | - | - | - |
| 1778058046 | 23.89° C | 46% | 1013.3 hPa | - | - | - | - |
| 1778057146 | 23.89° C | 46% | 1013.2 hPa | - | - | - | - |
| 1778056245 | 23.33° C | 45% | 1013.3 hPa | - | - | - | - |
| 1778055345 | 23.33° C | 47% | 1013.2 hPa | - | - | - | - |
| 1778054445 | 22.22° C | 49% | 1013.1 hPa | - | - | - | - |
| 1778053545 | 22.22° C | 51% | 1013.2 hPa | - | - | - | - |
| 1778052645 | 21.67° C | 51% | 1013.3 hPa | - | - | - | - |
| 1778051745 | 21.11° C | 52% | 1013.3 hPa | - | - | - | - |
| 1778050845 | 21.11° C | 52% | 1013.4 hPa | - | - | - | - |
| 1778049945 | 21.11° C | 51% | 1013.4 hPa | - | - | - | - |
| 1778049045 | 20° C | 53% | 1013.4 hPa | - | - | - | - |
| 1778048145 | 20° C | 52% | 1013.3 hPa | - | - | - | - |
| 1778047245 | 21.11° C | 51% | 1013.3 hPa | - | - | - | - |
* Rain since midnight (hover to see other rain measurements)
** Current wind speed in m/s (hover to see current wind gust speed)